Regional Weather Roundup
Issued by NWS New Orleans/Baton Rouge, LA

Home | Current Version | Previous Version | Text Only | Print | Product List | Glossary On
Versions: 1 2 3 4 5 6 7 8 9 10 11 12 13 14 15 16 17 18 19 20 21 22 23 24 25 26 27 28 29 30 31 32 33 34 35 36 37 38 39 40 41 42 43 44 45 46 47 48 49 50
000
ASUS44 KLIX 161613
RWRLIX
NEW ORLEANS REGIONAL WEATHER ROUNDUP
NATIONAL WEATHER SERVICE NEW ORLEANS LA
1000 AM CST MON JAN 16 2017

NOTE: "FAIR" INDICATES FEW OR NO CLOUDS BELOW 12,000 FEET WITH NO
      SIGNIFICANT WEATHER AND/OR OBSTRUCTIONS TO VISIBILITY.
      SKY/WX - SKY CONDITION AND SIGNIFICANT WEATHER.
      TMP - AIR TEMPERATURE.     DP    - DEWPOINT TEMPERATURE.
      RH  - RELATIVE HUMIDITY.   PRES  - PRESSURE.
      HI  - HEAT INDEX.          WCI   - WIND CHILL INDEX.

*  THESE STATIONS ARE NOT NWS OR FAA STATIONS AND ARE NOT UNDER
   NWS QUALITY CONTROL.

LAZ038-040-048-061>063-065>067-069-161700-
SOUTHEAST LOUISIANA

CITY           SKY/WX    TMP DP  RH WIND       PRES   REMARKS
N.O. AUDUBON   NOT AVBL
N.O. INTL ARPT PTSUNNY   72  66  81 SE12      30.18R
N.O. LAKEFRONT CLOUDY    73  66  78 SE12      30.19R
N.O. DOWNTOWN*   N/A     72  66  81 VRB6      30.20R
RESERVE*       CLOUDY    74  69  83 SE10      30.17S
SLIDELL        CLOUDY    75  66  73 SE15      30.19R
BATON ROUGE    PTSUNNY   73  65  75 SE15G23   30.15R
BOOTHVILLE     SUNNY     71  68  90 SE10      30.19R
BELLE CHASSE   CLOUDY    72  66  81 SE9       30.19R
BOGALUSA*        N/A     74  64  68 S8        30.21R
GALLIANO*      CLOUDY    74  64  72 SE13      30.18R
NEW ROADS*     PTSUNNY   72  65  81 S13G20    30.14R
GONZALES*      PTSUNNY   72  66  81 SE7       30.16R
HAMMOND*       MOSUNNY   73  63  68 SE14      30.17S
HOUMA*         PTSUNNY   73  68  83 SE13      30.17R
PORT FOURCHON* SUNNY     72  66  83 SE8       30.18R

$$

MSZ070-080>082-161700-
SOUTHERN MISSISSIPPI

CITY           SKY/WX    TMP DP  RH WIND       PRES   REMARKS
MCCOMB         CLOUDY    71  63  75 S13       30.17R
GULFPORT       MOSUNNY   73  65  75 SE13      30.21R
BILOXI         SUNNY     73  66  77 SE9       30.22R
PASCAGOULA     SUNNY     74  62  66 SE8       30.23R
STENNIS ARPT*  MOSUNNY   73  63  68 SE13      30.21R

$$

COASTAL OBSERVATIONS
LAKE AND NEARSHORE STATIONS

STATION/POSITION TIME  TEMP    WIND        PRES    WAVE
                       AIR SEA DIR/SP/G            HT/PER
                 (UTC) (F)     (DEG/KT/KT) (MB)    (FT/S)
PASCAGOULA       1542   71     120/  8/ 12 1022.9
WAVELAND YACHT   1542   67 60  140/ 11/ 12 1022.9
GRAND ISLE       1542   69 64  130/  4/  9 1021.7
SOUTHWEST PASS   1542          130/ 12/ 15   N/A
NEW CANAL        1542   72 57  150/  4/  7 1021.4
SHELL BEACH      1542   71 62  130/ 12/ 16 1022.4

OFFSHORE STATIONS

STATION/POSITION TIME  TEMP    WIND        PRES    WAVE
                       AIR SEA DIR/SP/G            HT/PER
                 (UTC) (F)     (DEG/KT/KT) (MB)    (FT/S)

$$




USA.gov is the U.S. government's official web portal to all federal, state and local government web resources and services.